Location: Ladrillo (historical)
(32.8195°N, 117.2231°W)
Time: 01:15:37
(UTC+00:00)

Courier 1B - Pass Details

Date: 09 March 2021
Orbit: 963 x 1209 km, 28.3° (Epoch: 15 April)

Event Time Altitude Azimuth Distance (km) Brightness Sun altitude
Rises 19:59:26 0° 258° (WSW) 3,646 10.6 53.0°
Reaches altitude 10° 20:05:13 10° 218° (SW) 2,736 10.5 53.0°
Maximum altitude 20:06:03 10° 210° (SSW) 2,725 10.6 53.0°
Drops below altitude 10° 20:06:54 10° 203° (SSW) 2,751 10.6 53.0°
Sets 20:12:52 0° 163° (SSE) 3,767 11.1 52.9°
